Terminal Aerodrome Forecast
Issued by NWS

Home | Current Version | Previous Version | Text Only | Print | Product List | Glossary Off
Versions: 1 2 3 4 5 6 7 8 9 10 11 12 13 14 15

000
FTUS42 KMHX 270530
TAFPGV
TAF
KPGV 270530Z 2706/2806 25004KT P6SM BKN150
     FM271800 26007KT P6SM VCTS BKN050CB
     FM280500 VRB03KT P6SM SCT060
      AMD LTD TO CLD VIS AND WIND=

USA.gov is the U.S. government's official web portal to all federal, state and local government web resources and services.